Year,Month,Day,Hour,Minute,Value (Times are PST for temperature in C)
2007,10,03,00,00,6.80
2007,10,03,00,01,6.80
2007,10,03,00,02,6.80
2007,10,03,00,03,6.80
2007,10,03,00,04,6.80
2007,10,03,00,05,6.80
2007,10,03,00,06,6.80
2007,10,03,00,07,6.80
2007,10,03,00,08,6.80
2007,10,03,00,09,6.80
2007,10,03,00,10,6.80
2007,10,03,00,11,6.80
2007,10,03,00,12,6.80
2007,10,03,00,13,6.80
2007,10,03,00,14,6.80
2007,10,03,00,15,6.80
2007,10,03,00,16,6.80
2007,10,03,00,17,6.80
2007,10,03,00,18,6.80
2007,10,03,00,19,6.80
2007,10,03,00,20,6.80
2007,10,03,00,21,6.80
2007,10,03,00,22,6.80
2007,10,03,00,23,6.80
2007,10,03,00,24,6.80
2007,10,03,00,25,6.80
2007,10,03,00,26,6.70
2007,10,03,00,27,6.70
2007,10,03,00,28,6.70
2007,10,03,00,29,6.70
2007,10,03,00,30,6.70
2007,10,03,00,31,6.70
2007,10,03,00,32,6.60
2007,10,03,00,33,6.60
2007,10,03,00,34,6.60
2007,10,03,00,35,6.60
2007,10,03,00,36,6.60
2007,10,03,00,37,6.60
2007,10,03,00,38,6.70
2007,10,03,00,39,6.70
2007,10,03,00,40,6.70
2007,10,03,00,41,6.70
2007,10,03,00,42,6.70
2007,10,03,00,43,6.80
2007,10,03,00,44,6.80
2007,10,03,00,45,6.80
2007,10,03,00,46,6.80
2007,10,03,00,47,6.80
2007,10,03,00,48,6.80
2007,10,03,00,49,6.80
2007,10,03,00,50,6.80
2007,10,03,00,51,6.80
2007,10,03,00,52,6.90
2007,10,03,00,53,6.90
2007,10,03,00,54,6.90
2007,10,03,00,55,6.90
2007,10,03,00,56,7.00
2007,10,03,00,57,7.00
2007,10,03,00,58,7.00
2007,10,03,00,59,7.00
2007,10,03,01,00,7.00
2007,10,03,01,01,7.00
2007,10,03,01,02,7.00
2007,10,03,01,03,7.10
2007,10,03,01,04,7.10
2007,10,03,01,05,7.10
2007,10,03,01,06,7.10
2007,10,03,01,07,7.10
2007,10,03,01,08,7.10
2007,10,03,01,09,7.10
2007,10,03,01,10,7.10
2007,10,03,01,11,7.10
2007,10,03,01,12,7.10
2007,10,03,01,13,7.10
2007,10,03,01,14,7.10
2007,10,03,01,15,7.10
2007,10,03,01,16,7.00
2007,10,03,01,17,7.00
2007,10,03,01,18,7.00
2007,10,03,01,19,7.00
2007,10,03,01,20,7.00
2007,10,03,01,21,7.00
2007,10,03,01,22,7.00
2007,10,03,01,23,6.90
2007,10,03,01,24,6.90
2007,10,03,01,25,6.90
2007,10,03,01,26,6.90
2007,10,03,01,27,6.90
2007,10,03,01,28,6.90
2007,10,03,01,29,6.90
2007,10,03,01,30,6.80
2007,10,03,01,31,6.80
2007,10,03,01,32,6.80
2007,10,03,01,33,6.80
2007,10,03,01,34,6.80
2007,10,03,01,35,6.80
2007,10,03,01,36,6.80
2007,10,03,01,37,6.70
2007,10,03,01,38,6.70
2007,10,03,01,39,6.70
2007,10,03,01,40,6.60
2007,10,03,01,41,6.60
2007,10,03,01,42,6.60
2007,10,03,01,43,6.60
2007,10,03,01,44,6.60
2007,10,03,01,45,6.60
2007,10,03,01,46,6.40
2007,10,03,01,47,6.40
2007,10,03,01,48,6.40
2007,10,03,01,49,6.40
2007,10,03,01,50,6.40
2007,10,03,01,51,6.40
2007,10,03,01,52,6.40
2007,10,03,01,53,6.40
2007,10,03,01,54,6.30
2007,10,03,01,55,6.30
2007,10,03,01,56,6.30
2007,10,03,01,57,6.20
2007,10,03,01,58,6.20
2007,10,03,01,59,6.20
2007,10,03,02,00,6.20
2007,10,03,02,01,6.20
2007,10,03,02,02,6.20
2007,10,03,02,03,6.20
2007,10,03,02,04,6.20
2007,10,03,02,05,6.20
2007,10,03,02,06,6.10
2007,10,03,02,07,6.10
2007,10,03,02,08,6.10
2007,10,03,02,09,6.00
2007,10,03,02,10,6.00
2007,10,03,02,11,6.00
2007,10,03,02,12,6.00
2007,10,03,02,13,5.90
2007,10,03,02,14,5.90
2007,10,03,02,15,5.90
2007,10,03,02,16,5.90
2007,10,03,02,17,5.90
2007,10,03,02,18,5.80
2007,10,03,02,19,5.80
2007,10,03,02,20,5.80
2007,10,03,02,21,5.70
2007,10,03,02,22,5.70
2007,10,03,02,23,5.70
2007,10,03,02,24,5.70
2007,10,03,02,25,5.70
2007,10,03,02,26,5.70
2007,10,03,02,27,5.60
2007,10,03,02,28,5.60
2007,10,03,02,29,5.60
2007,10,03,02,30,5.60
2007,10,03,02,31,5.50
2007,10,03,02,32,5.50
2007,10,03,02,33,5.50
2007,10,03,02,34,5.40
2007,10,03,02,35,5.40
2007,10,03,02,36,5.40
2007,10,03,02,37,5.40
2007,10,03,02,38,5.30
2007,10,03,02,39,5.30
2007,10,03,02,40,5.30
2007,10,03,02,41,5.30
2007,10,03,02,42,5.30
2007,10,03,02,43,5.30
2007,10,03,02,44,5.30
2007,10,03,02,45,5.30
2007,10,03,02,46,5.30
2007,10,03,02,47,5.30
2007,10,03,02,48,5.20
2007,10,03,02,49,5.20
2007,10,03,02,50,5.20
2007,10,03,02,51,5.20
2007,10,03,02,52,5.20
2007,10,03,02,53,5.20
2007,10,03,02,54,5.20
2007,10,03,02,55,5.20
2007,10,03,02,56,5.20
2007,10,03,02,57,5.10
2007,10,03,02,58,5.10
2007,10,03,02,59,5.10
2007,10,03,03,00,5.10
2007,10,03,03,01,5.10
2007,10,03,03,02,5.10
2007,10,03,03,03,5.10
2007,10,03,03,04,5.10
2007,10,03,03,05,5.10
2007,10,03,03,06,5.10
2007,10,03,03,07,5.10
2007,10,03,03,08,5.10
2007,10,03,03,09,5.00
2007,10,03,03,10,4.90
2007,10,03,03,11,4.90
2007,10,03,03,12,4.90
2007,10,03,03,13,4.90
2007,10,03,03,14,4.90
2007,10,03,03,15,4.90
2007,10,03,03,16,4.90
2007,10,03,03,17,4.90
2007,10,03,03,18,4.90
2007,10,03,03,19,4.90
2007,10,03,03,20,4.80
2007,10,03,03,21,4.80
2007,10,03,03,22,4.80
2007,10,03,03,23,4.80
2007,10,03,03,24,4.80
2007,10,03,03,25,4.70
2007,10,03,03,26,4.70
2007,10,03,03,27,4.70
2007,10,03,03,28,4.70
2007,10,03,03,29,4.70
2007,10,03,03,30,4.60
2007,10,03,03,31,4.60
2007,10,03,03,32,4.60
2007,10,03,03,33,4.60
2007,10,03,03,34,4.60
2007,10,03,03,35,4.60
2007,10,03,03,36,4.60
2007,10,03,03,37,4.60
2007,10,03,03,38,4.60
2007,10,03,03,39,4.60
2007,10,03,03,40,4.60
2007,10,03,03,41,4.50
2007,10,03,03,42,4.50
2007,10,03,03,43,4.50
2007,10,03,03,44,4.50
2007,10,03,03,45,4.50
2007,10,03,03,46,4.40
2007,10,03,03,47,4.40
2007,10,03,03,48,4.40
2007,10,03,03,49,4.40
2007,10,03,03,50,4.40
2007,10,03,03,51,4.40
2007,10,03,03,52,4.40
2007,10,03,03,53,4.40
2007,10,03,03,54,4.40
2007,10,03,03,55,4.40
2007,10,03,03,56,4.40
2007,10,03,03,57,4.40
2007,10,03,03,58,4.30
2007,10,03,03,59,4.30
2007,10,03,04,00,4.30
2007,10,03,04,01,4.30
2007,10,03,04,02,4.30
2007,10,03,04,03,4.30
2007,10,03,04,04,4.30
2007,10,03,04,05,4.20
2007,10,03,04,06,4.20
2007,10,03,04,07,4.20
2007,10,03,04,08,4.20
2007,10,03,04,09,4.20
2007,10,03,04,10,4.20
2007,10,03,04,11,4.20
2007,10,03,04,12,4.20
2007,10,03,04,13,4.20
2007,10,03,04,14,4.20
2007,10,03,04,15,4.20
2007,10,03,04,16,4.20
2007,10,03,04,17,4.20
2007,10,03,04,18,4.20
2007,10,03,04,19,4.20
2007,10,03,04,20,4.20
2007,10,03,04,21,4.10
2007,10,03,04,22,4.10
2007,10,03,04,23,4.10
2007,10,03,04,24,4.10
2007,10,03,04,25,4.00
2007,10,03,04,26,4.00
2007,10,03,04,27,4.00
2007,10,03,04,28,4.00
2007,10,03,04,29,4.00
2007,10,03,04,30,4.00
2007,10,03,04,31,4.00
2007,10,03,04,32,4.00
2007,10,03,04,33,4.00
2007,10,03,04,34,3.90
2007,10,03,04,35,3.90
2007,10,03,04,36,3.90
2007,10,03,04,37,3.90
2007,10,03,04,38,3.90
2007,10,03,04,39,3.90
2007,10,03,04,40,3.80
2007,10,03,04,41,3.80
2007,10,03,04,42,3.80
2007,10,03,04,43,3.80
2007,10,03,04,44,3.80
2007,10,03,04,45,3.80
2007,10,03,04,46,3.80
2007,10,03,04,47,3.80
2007,10,03,04,48,3.80
2007,10,03,04,49,3.80
2007,10,03,04,50,3.80
2007,10,03,04,51,3.70
2007,10,03,04,52,3.70
2007,10,03,04,53,3.70
2007,10,03,04,54,3.70
2007,10,03,04,55,3.70
2007,10,03,04,56,3.70
2007,10,03,04,57,3.70
2007,10,03,04,58,3.70
2007,10,03,04,59,3.70
2007,10,03,05,00,3.70
2007,10,03,05,01,3.60
2007,10,03,05,02,3.60
2007,10,03,05,03,3.60
2007,10,03,05,04,3.60
2007,10,03,05,05,3.60
2007,10,03,05,06,3.60
2007,10,03,05,07,3.60
2007,10,03,05,08,3.60
2007,10,03,05,09,3.50
2007,10,03,05,10,3.50
2007,10,03,05,11,3.50
2007,10,03,05,12,3.50
2007,10,03,05,13,3.50
2007,10,03,05,14,3.50
2007,10,03,05,15,3.50
2007,10,03,05,16,3.50
2007,10,03,05,17,3.50
2007,10,03,05,18,3.50
2007,10,03,05,19,3.50
2007,10,03,05,20,3.50
2007,10,03,05,21,3.50
2007,10,03,05,22,3.40
2007,10,03,05,23,3.40
2007,10,03,05,24,3.40
2007,10,03,05,25,3.40
2007,10,03,05,26,3.40
2007,10,03,05,27,3.40
2007,10,03,05,28,3.40
2007,10,03,05,29,3.40
2007,10,03,05,30,3.40
2007,10,03,05,31,3.40
2007,10,03,05,32,3.40
2007,10,03,05,33,3.40
2007,10,03,05,34,3.40
2007,10,03,05,35,3.30
2007,10,03,05,36,3.30
2007,10,03,05,37,3.30
2007,10,03,05,38,3.30
2007,10,03,05,39,3.30
2007,10,03,05,40,3.30
2007,10,03,05,41,3.30
2007,10,03,05,42,3.30
2007,10,03,05,43,3.30
2007,10,03,05,44,3.30
2007,10,03,05,45,3.30
2007,10,03,05,46,3.30
2007,10,03,05,47,3.30
2007,10,03,05,48,3.30
2007,10,03,05,49,3.30
2007,10,03,05,50,3.30
2007,10,03,05,51,3.30
2007,10,03,05,52,3.30
2007,10,03,05,53,3.30
2007,10,03,05,54,3.30
2007,10,03,05,55,3.30
2007,10,03,05,56,3.30
2007,10,03,05,57,3.30
2007,10,03,05,58,3.30
2007,10,03,05,59,3.30
2007,10,03,06,00,3.30
2007,10,03,06,01,3.30
2007,10,03,06,02,3.30
2007,10,03,06,03,3.30
2007,10,03,06,04,3.30
2007,10,03,06,05,3.30
2007,10,03,06,06,3.30
2007,10,03,06,07,3.30
2007,10,03,06,08,3.30
2007,10,03,06,09,3.30
2007,10,03,06,10,3.30
2007,10,03,06,11,3.30
2007,10,03,06,12,3.30
2007,10,03,06,13,3.30
2007,10,03,06,14,3.30
2007,10,03,06,15,3.30
2007,10,03,06,16,3.30
2007,10,03,06,17,3.30
2007,10,03,06,18,3.30
2007,10,03,06,19,3.30
2007,10,03,06,20,3.30
2007,10,03,06,21,3.20
2007,10,03,06,22,3.20
2007,10,03,06,23,3.20
2007,10,03,06,24,3.20
2007,10,03,06,25,3.20
2007,10,03,06,26,3.20
2007,10,03,06,27,3.20
2007,10,03,06,28,3.20
2007,10,03,06,29,3.20
2007,10,03,06,30,3.20
2007,10,03,06,31,3.10
2007,10,03,06,32,3.10
2007,10,03,06,33,3.10
2007,10,03,06,34,3.10
2007,10,03,06,35,3.10
2007,10,03,06,36,3.10
2007,10,03,06,37,3.10
2007,10,03,06,38,3.10
2007,10,03,06,39,3.10
2007,10,03,06,40,3.10
2007,10,03,06,41,3.10
2007,10,03,06,42,3.10
2007,10,03,06,43,3.10
2007,10,03,06,44,3.00
2007,10,03,06,45,2.90
2007,10,03,06,46,2.90
2007,10,03,06,47,2.90
2007,10,03,06,48,2.90
2007,10,03,06,49,2.90
2007,10,03,06,50,2.90
2007,10,03,06,51,2.90
2007,10,03,06,52,2.90
2007,10,03,06,53,2.90
2007,10,03,06,54,2.90
2007,10,03,06,55,2.90
2007,10,03,06,56,2.90
2007,10,03,06,57,2.90
2007,10,03,06,58,2.90
2007,10,03,06,59,2.90
2007,10,03,07,00,2.90
2007,10,03,07,01,2.90
2007,10,03,07,02,2.90
2007,10,03,07,03,2.90
2007,10,03,07,04,2.90
2007,10,03,07,05,2.90
2007,10,03,07,06,2.90
2007,10,03,07,07,2.90
2007,10,03,07,08,2.90
2007,10,03,07,09,2.90
2007,10,03,07,10,2.90
2007,10,03,07,11,2.90
2007,10,03,07,12,2.90
2007,10,03,07,13,2.90
2007,10,03,07,14,2.80
2007,10,03,07,15,2.80
2007,10,03,07,16,2.80
2007,10,03,07,17,2.80
2007,10,03,07,18,2.80
2007,10,03,07,19,2.80
2007,10,03,07,20,2.80
2007,10,03,07,21,2.80
2007,10,03,07,22,2.80
2007,10,03,07,23,2.70
2007,10,03,07,24,2.70
2007,10,03,07,25,2.70
2007,10,03,07,26,2.70
2007,10,03,07,27,2.70
2007,10,03,07,28,2.70
2007,10,03,07,29,2.70
2007,10,03,07,30,2.70
2007,10,03,07,31,2.70
2007,10,03,07,32,2.70
2007,10,03,07,33,2.70
2007,10,03,07,34,2.70
2007,10,03,07,35,2.70
2007,10,03,07,36,2.70
2007,10,03,07,37,2.70
2007,10,03,07,38,2.70
2007,10,03,07,39,2.80
2007,10,03,07,40,2.80
2007,10,03,07,41,2.80
2007,10,03,07,42,2.80
2007,10,03,07,43,2.80
2007,10,03,07,44,2.80
2007,10,03,07,45,2.80
2007,10,03,07,46,2.80
2007,10,03,07,47,2.80
2007,10,03,07,48,2.90
2007,10,03,07,49,2.90
2007,10,03,07,50,2.90
2007,10,03,07,51,2.90
2007,10,03,07,52,2.90
2007,10,03,07,53,2.90
2007,10,03,07,54,2.90
2007,10,03,07,55,2.90
2007,10,03,07,56,3.10
2007,10,03,07,57,3.10
2007,10,03,07,58,3.10
2007,10,03,07,59,3.10
2007,10,03,08,00,3.10
2007,10,03,08,01,3.10
2007,10,03,08,02,3.20
2007,10,03,08,03,3.20
2007,10,03,08,04,3.20
2007,10,03,08,05,3.30
2007,10,03,08,06,3.30
2007,10,03,08,07,3.30
2007,10,03,08,08,3.30
2007,10,03,08,09,3.30
2007,10,03,08,10,3.30
2007,10,03,08,11,3.40
2007,10,03,08,12,3.40
2007,10,03,08,13,3.50
2007,10,03,08,14,3.60
2007,10,03,08,15,3.60
2007,10,03,08,16,3.70
2007,10,03,08,17,3.80
2007,10,03,08,18,3.80
2007,10,03,08,19,3.80
2007,10,03,08,20,3.80
2007,10,03,08,21,3.80
2007,10,03,08,22,3.90
2007,10,03,08,23,3.90
2007,10,03,08,24,4.00
2007,10,03,08,25,4.00
2007,10,03,08,26,4.10
2007,10,03,08,27,4.20
2007,10,03,08,28,4.20
2007,10,03,08,29,4.20
2007,10,03,08,30,4.30
2007,10,03,08,31,4.40
2007,10,03,08,32,4.40
2007,10,03,08,33,4.50
2007,10,03,08,34,4.50
2007,10,03,08,35,4.50
2007,10,03,08,36,4.60
2007,10,03,08,37,4.60
2007,10,03,08,38,4.60
2007,10,03,08,39,4.70
2007,10,03,08,40,4.70
2007,10,03,08,41,4.80
2007,10,03,08,42,4.80
2007,10,03,08,43,4.90
2007,10,03,08,44,5.00
2007,10,03,08,45,5.10
2007,10,03,08,46,5.10
2007,10,03,08,47,5.10
2007,10,03,08,48,5.20
2007,10,03,08,49,5.30
2007,10,03,08,50,5.30
2007,10,03,08,51,5.30
2007,10,03,08,52,5.40
2007,10,03,08,53,5.50
2007,10,03,08,54,5.60
2007,10,03,08,55,5.60
2007,10,03,08,56,5.70
2007,10,03,08,57,5.70
2007,10,03,08,58,5.80
2007,10,03,08,59,5.80
2007,10,03,09,00,5.90
2007,10,03,09,01,5.90
2007,10,03,09,02,6.00
2007,10,03,09,03,6.00
2007,10,03,09,04,6.00
2007,10,03,09,05,6.10
2007,10,03,09,06,6.10
2007,10,03,09,07,6.20
2007,10,03,09,08,6.20
2007,10,03,09,09,6.20
2007,10,03,09,10,6.20
2007,10,03,09,11,6.20
2007,10,03,09,12,6.20
2007,10,03,09,13,6.20
2007,10,03,09,14,6.30
2007,10,03,09,15,6.30
2007,10,03,09,16,6.30
2007,10,03,09,17,6.40
2007,10,03,09,18,6.40
2007,10,03,09,19,6.40
2007,10,03,09,20,6.40
2007,10,03,09,21,6.40
2007,10,03,09,22,6.50
2007,10,03,09,23,6.60
2007,10,03,09,24,6.60
2007,10,03,09,25,6.60
2007,10,03,09,26,6.60
2007,10,03,09,27,6.60
2007,10,03,09,28,6.70
2007,10,03,09,29,6.70
2007,10,03,09,30,6.80
2007,10,03,09,31,6.80
2007,10,03,09,32,6.80
2007,10,03,09,33,6.80
2007,10,03,09,34,6.80
2007,10,03,09,35,6.90
2007,10,03,09,36,6.90
2007,10,03,09,37,7.00
2007,10,03,09,38,7.00
2007,10,03,09,39,7.00
2007,10,03,09,40,7.00
2007,10,03,09,41,7.10
2007,10,03,09,42,7.10
2007,10,03,09,43,7.10
2007,10,03,09,44,7.10
2007,10,03,09,45,7.10
2007,10,03,09,46,7.10
2007,10,03,09,47,7.10
2007,10,03,09,48,7.10
2007,10,03,09,49,7.10
2007,10,03,09,50,7.10
2007,10,03,09,51,7.10
2007,10,03,09,52,7.20
2007,10,03,09,53,7.20
2007,10,03,09,54,7.20
2007,10,03,09,55,7.20
2007,10,03,09,56,7.20
2007,10,03,09,57,7.20
2007,10,03,09,58,7.20
2007,10,03,09,59,7.20
2007,10,03,10,00,7.20
2007,10,03,10,01,7.20
2007,10,03,10,02,7.10
2007,10,03,10,03,7.10
2007,10,03,10,04,7.10
2007,10,03,10,05,7.00
2007,10,03,10,06,7.00
2007,10,03,10,07,7.00
2007,10,03,10,08,6.90
2007,10,03,10,09,6.90
2007,10,03,10,10,6.90
2007,10,03,10,11,6.90
2007,10,03,10,12,6.90
2007,10,03,10,13,6.80
2007,10,03,10,14,6.80
2007,10,03,10,15,6.80
2007,10,03,10,16,6.80
2007,10,03,10,17,6.90
2007,10,03,10,18,6.90
2007,10,03,10,19,6.90
2007,10,03,10,20,6.90
2007,10,03,10,21,6.90
2007,10,03,10,22,6.90
2007,10,03,10,23,6.90
2007,10,03,10,24,6.90
2007,10,03,10,25,6.90
2007,10,03,10,26,6.90
2007,10,03,10,27,6.90
2007,10,03,10,28,6.90
2007,10,03,10,29,6.90
2007,10,03,10,30,6.90
2007,10,03,10,31,6.90
2007,10,03,10,32,7.00
2007,10,03,10,33,7.00
2007,10,03,10,34,7.00
2007,10,03,10,35,7.00
2007,10,03,10,36,7.00
2007,10,03,10,37,7.00
2007,10,03,10,38,7.00
2007,10,03,10,39,7.00
2007,10,03,10,40,7.10
2007,10,03,10,41,7.10
2007,10,03,10,42,7.10
2007,10,03,10,43,7.10
2007,10,03,10,44,7.20
2007,10,03,10,45,7.20
2007,10,03,10,46,7.30
2007,10,03,10,47,7.30
2007,10,03,10,48,7.30
2007,10,03,10,49,7.30
2007,10,03,10,50,7.40
2007,10,03,10,51,7.40
2007,10,03,10,52,7.50
2007,10,03,10,53,7.50
2007,10,03,10,54,7.60
2007,10,03,10,55,7.70
2007,10,03,10,56,7.70
2007,10,03,10,57,7.80
2007,10,03,10,58,7.90
2007,10,03,10,59,7.90
2007,10,03,11,00,7.90
2007,10,03,11,01,8.00
2007,10,03,11,02,8.00
2007,10,03,11,03,8.10
2007,10,03,11,04,8.10
2007,10,03,11,05,8.20
2007,10,03,11,06,8.20
2007,10,03,11,07,8.20
2007,10,03,11,08,8.20
2007,10,03,11,09,8.20
2007,10,03,11,10,8.20
2007,10,03,11,11,8.30
2007,10,03,11,12,8.30
2007,10,03,11,13,8.30
2007,10,03,11,14,8.40
2007,10,03,11,15,8.40
2007,10,03,11,16,8.40
2007,10,03,11,17,8.40
2007,10,03,11,18,8.40
2007,10,03,11,19,8.40
2007,10,03,11,20,8.50
2007,10,03,11,21,8.50
2007,10,03,11,22,8.60
2007,10,03,11,23,8.60
2007,10,03,11,24,8.70
2007,10,03,11,25,8.70
2007,10,03,11,26,8.80
2007,10,03,11,27,8.80
2007,10,03,11,28,8.90
2007,10,03,11,29,9.00
2007,10,03,11,30,9.10
2007,10,03,11,31,9.20
2007,10,03,11,32,9.20
2007,10,03,11,33,9.20
2007,10,03,11,34,9.30
2007,10,03,11,35,9.40
2007,10,03,11,36,9.50
2007,10,03,11,37,9.60
2007,10,03,11,38,9.60
2007,10,03,11,39,9.60
2007,10,03,11,40,9.70
2007,10,03,11,41,9.70
2007,10,03,11,42,9.70
2007,10,03,11,43,9.70
2007,10,03,11,44,9.70
2007,10,03,11,45,9.70
2007,10,03,11,46,9.70
2007,10,03,11,47,9.70
2007,10,03,11,48,9.70
2007,10,03,11,49,9.70
2007,10,03,11,50,9.70
2007,10,03,11,51,9.70
2007,10,03,11,52,9.70
2007,10,03,11,53,9.70
2007,10,03,11,54,9.70
2007,10,03,11,55,9.70
2007,10,03,11,56,9.70
2007,10,03,11,57,9.80
2007,10,03,11,58,9.80
2007,10,03,11,59,9.90
2007,10,03,12,00,9.90
2007,10,03,12,01,9.90
2007,10,03,12,02,9.90
2007,10,03,12,03,9.90
2007,10,03,12,04,9.90
2007,10,03,12,05,9.90
2007,10,03,12,06,9.90
2007,10,03,12,07,9.90
2007,10,03,12,08,10.00
2007,10,03,12,09,10.10
2007,10,03,12,10,10.10
2007,10,03,12,11,10.10
2007,10,03,12,12,10.10
2007,10,03,12,13,10.00
2007,10,03,12,14,9.90
2007,10,03,12,15,10.00
2007,10,03,12,16,10.10
2007,10,03,12,17,10.10
2007,10,03,12,18,10.10
2007,10,03,12,19,10.10
2007,10,03,12,20,10.10
2007,10,03,12,21,10.10
2007,10,03,12,22,10.10
2007,10,03,12,23,10.10
2007,10,03,12,24,10.10
2007,10,03,12,25,10.20
2007,10,03,12,26,10.20
2007,10,03,12,27,10.20
2007,10,03,12,28,10.30
2007,10,03,12,29,10.30
2007,10,03,12,30,10.20
2007,10,03,12,31,10.20
2007,10,03,12,32,10.20
2007,10,03,12,33,10.20
2007,10,03,12,34,10.30
2007,10,03,12,35,10.30
2007,10,03,12,36,10.30
2007,10,03,12,37,10.40
2007,10,03,12,38,10.40
2007,10,03,12,39,10.40
2007,10,03,12,40,10.50
2007,10,03,12,41,10.60
2007,10,03,12,42,10.60
2007,10,03,12,43,10.60
2007,10,03,12,44,10.60
2007,10,03,12,45,10.60
2007,10,03,12,46,10.60
2007,10,03,12,47,10.60
2007,10,03,12,48,10.60
2007,10,03,12,49,10.60
2007,10,03,12,50,10.60
2007,10,03,12,51,10.60
2007,10,03,12,52,10.60
2007,10,03,12,53,10.60
2007,10,03,12,54,10.70
2007,10,03,12,55,10.70
2007,10,03,12,56,10.70
2007,10,03,12,57,10.80
2007,10,03,12,58,10.80
2007,10,03,12,59,10.80
2007,10,03,13,00,10.90
2007,10,03,13,01,10.90
2007,10,03,13,02,10.90
2007,10,03,13,03,10.90
2007,10,03,13,04,10.90
2007,10,03,13,05,11.00
2007,10,03,13,06,11.10
2007,10,03,13,07,11.10
2007,10,03,13,08,11.10
2007,10,03,13,09,11.10
2007,10,03,13,10,11.10
2007,10,03,13,11,11.10
2007,10,03,13,12,11.10
2007,10,03,13,13,11.10
2007,10,03,13,14,11.10
2007,10,03,13,15,11.10
2007,10,03,13,16,11.10
2007,10,03,13,17,11.10
2007,10,03,13,18,11.10
2007,10,03,13,19,11.20
2007,10,03,13,20,11.20
2007,10,03,13,21,11.20
2007,10,03,13,22,11.20
2007,10,03,13,23,11.20
2007,10,03,13,24,11.30
2007,10,03,13,25,11.30
2007,10,03,13,26,11.30
2007,10,03,13,27,11.30
2007,10,03,13,28,11.30
2007,10,03,13,29,11.30
2007,10,03,13,30,11.30
2007,10,03,13,31,11.40
2007,10,03,13,32,11.40
2007,10,03,13,33,11.40
2007,10,03,13,34,11.40
2007,10,03,13,35,11.40
2007,10,03,13,36,11.40
2007,10,03,13,37,11.50
2007,10,03,13,38,11.60
2007,10,03,13,39,11.60
2007,10,03,13,40,11.60
2007,10,03,13,41,11.70
2007,10,03,13,42,11.70
2007,10,03,13,43,11.70
2007,10,03,13,44,11.60
2007,10,03,13,45,11.60
2007,10,03,13,46,11.60
2007,10,03,13,47,11.70
2007,10,03,13,48,11.70
2007,10,03,13,49,11.70
2007,10,03,13,50,11.80
2007,10,03,13,51,11.90
2007,10,03,13,52,12.00
2007,10,03,13,53,12.00
2007,10,03,13,54,12.10
2007,10,03,13,55,12.10
2007,10,03,13,56,12.20
2007,10,03,13,57,12.20
2007,10,03,13,58,12.30
2007,10,03,13,59,12.30
2007,10,03,14,00,12.30
2007,10,03,14,01,12.20
2007,10,03,14,02,12.10
2007,10,03,14,03,12.10
2007,10,03,14,04,12.00
2007,10,03,14,05,11.90
2007,10,03,14,06,11.90
2007,10,03,14,07,11.80
2007,10,03,14,08,11.80
2007,10,03,14,09,11.70
2007,10,03,14,10,11.60
2007,10,03,14,11,11.60
2007,10,03,14,12,11.50
2007,10,03,14,13,11.40
2007,10,03,14,14,11.40
2007,10,03,14,15,11.40
2007,10,03,14,16,11.30
2007,10,03,14,17,11.20
2007,10,03,14,18,11.20
2007,10,03,14,19,11.20
2007,10,03,14,20,11.20
2007,10,03,14,21,11.20
2007,10,03,14,22,11.10
2007,10,03,14,23,11.10
2007,10,03,14,24,11.10
2007,10,03,14,25,11.00
2007,10,03,14,26,10.90
2007,10,03,14,27,10.90
2007,10,03,14,28,10.90
2007,10,03,14,29,10.90
2007,10,03,14,30,10.90
2007,10,03,14,31,10.90
2007,10,03,14,32,11.00
2007,10,03,14,33,11.10
2007,10,03,14,34,11.10
2007,10,03,14,35,11.10
2007,10,03,14,36,11.20
2007,10,03,14,37,11.20
2007,10,03,14,38,11.30
2007,10,03,14,39,11.30
2007,10,03,14,40,11.30
2007,10,03,14,41,11.30
2007,10,03,14,42,11.30
2007,10,03,14,43,11.40
2007,10,03,14,44,11.40
2007,10,03,14,45,11.40
2007,10,03,14,46,11.60
2007,10,03,14,47,11.60
2007,10,03,14,48,11.60
2007,10,03,14,49,11.70
2007,10,03,14,50,11.70
2007,10,03,14,51,11.60
2007,10,03,14,52,11.60
2007,10,03,14,53,11.60
2007,10,03,14,54,11.60
2007,10,03,14,55,11.60
2007,10,03,14,56,11.70
2007,10,03,14,57,11.70
2007,10,03,14,58,11.70
2007,10,03,14,59,11.80
2007,10,03,15,00,11.80
2007,10,03,15,01,11.80
2007,10,03,15,02,11.80
2007,10,03,15,03,11.90
2007,10,03,15,04,11.90
2007,10,03,15,05,11.90
2007,10,03,15,06,11.90
2007,10,03,15,07,11.90
2007,10,03,15,08,11.90
2007,10,03,15,09,11.90
2007,10,03,15,10,11.90
2007,10,03,15,11,11.90
2007,10,03,15,12,11.90
2007,10,03,15,13,11.90
2007,10,03,15,14,11.90
2007,10,03,15,15,11.80
2007,10,03,15,16,11.80
2007,10,03,15,17,11.80
2007,10,03,15,18,11.80
2007,10,03,15,19,11.80
2007,10,03,15,20,11.80
2007,10,03,15,21,11.80
2007,10,03,15,22,11.80
2007,10,03,15,23,11.80
2007,10,03,15,24,11.80
2007,10,03,15,25,11.90
2007,10,03,15,26,11.90
2007,10,03,15,27,11.90
2007,10,03,15,28,11.90
2007,10,03,15,29,11.80
2007,10,03,15,30,11.80
2007,10,03,15,31,11.80
2007,10,03,15,32,11.80
2007,10,03,15,33,11.80
2007,10,03,15,34,11.80
2007,10,03,15,35,11.70
2007,10,03,15,36,11.70
2007,10,03,15,37,11.60
2007,10,03,15,38,11.60
2007,10,03,15,39,11.60
2007,10,03,15,40,11.50
2007,10,03,15,41,11.40
2007,10,03,15,42,11.40
2007,10,03,15,43,11.30
2007,10,03,15,44,11.30
2007,10,03,15,45,11.30
2007,10,03,15,46,11.20
2007,10,03,15,47,11.20
2007,10,03,15,48,11.30
2007,10,03,15,49,11.30
2007,10,03,15,50,11.30
2007,10,03,15,51,11.40
2007,10,03,15,52,11.40
2007,10,03,15,53,11.40
2007,10,03,15,54,11.50
2007,10,03,15,55,11.60
2007,10,03,15,56,11.60
2007,10,03,15,57,11.60
2007,10,03,15,58,11.70
2007,10,03,15,59,11.70
2007,10,03,16,00,11.80
2007,10,03,16,01,11.80
2007,10,03,16,02,11.80
2007,10,03,16,03,11.80
2007,10,03,16,04,11.90
2007,10,03,16,05,11.90
2007,10,03,16,06,11.90
2007,10,03,16,07,11.90
2007,10,03,16,08,11.90
2007,10,03,16,09,11.90
2007,10,03,16,10,11.90
2007,10,03,16,11,11.90
2007,10,03,16,12,11.90
2007,10,03,16,13,11.90
2007,10,03,16,14,11.90
2007,10,03,16,15,11.80
2007,10,03,16,16,11.80
2007,10,03,16,17,11.80
2007,10,03,16,18,11.80
2007,10,03,16,19,11.80
2007,10,03,16,20,11.80
2007,10,03,16,21,11.80
2007,10,03,16,22,11.80
2007,10,03,16,23,11.80
2007,10,03,16,24,11.80
2007,10,03,16,25,11.80
2007,10,03,16,26,11.80
2007,10,03,16,27,11.80
2007,10,03,16,28,11.80
2007,10,03,16,29,11.70
2007,10,03,16,30,11.60
2007,10,03,16,31,11.60
2007,10,03,16,32,11.60
2007,10,03,16,33,11.60
2007,10,03,16,34,11.50
2007,10,03,16,35,11.40
2007,10,03,16,36,11.40
2007,10,03,16,37,11.40
2007,10,03,16,38,11.40
2007,10,03,16,39,11.40
2007,10,03,16,40,11.40
2007,10,03,16,41,11.30
2007,10,03,16,42,11.30
2007,10,03,16,43,11.20
2007,10,03,16,44,11.20
2007,10,03,16,45,11.20
2007,10,03,16,46,11.20
2007,10,03,16,47,11.20
2007,10,03,16,48,11.10
2007,10,03,16,49,11.10
2007,10,03,16,50,11.00
2007,10,03,16,51,10.90
2007,10,03,16,52,10.90
2007,10,03,16,53,10.90
2007,10,03,16,54,10.80
2007,10,03,16,55,10.80
2007,10,03,16,56,10.80
2007,10,03,16,57,10.80
2007,10,03,16,58,10.80
2007,10,03,16,59,10.70
2007,10,03,17,00,10.70
2007,10,03,17,01,10.70
2007,10,03,17,02,10.70
2007,10,03,17,03,10.70
2007,10,03,17,04,10.70
2007,10,03,17,05,10.60
2007,10,03,17,06,10.60
2007,10,03,17,07,10.60
2007,10,03,17,08,10.60
2007,10,03,17,09,10.70
2007,10,03,17,10,10.60
2007,10,03,17,11,10.60
2007,10,03,17,12,10.60
2007,10,03,17,13,10.60
2007,10,03,17,14,10.60
2007,10,03,17,15,10.60
2007,10,03,17,16,10.60
2007,10,03,17,17,10.60
2007,10,03,17,18,10.60
2007,10,03,17,19,10.60
2007,10,03,17,20,10.60
2007,10,03,17,21,10.60
2007,10,03,17,22,10.60
2007,10,03,17,23,10.60
2007,10,03,17,24,10.60
2007,10,03,17,25,10.60
2007,10,03,17,26,10.60
2007,10,03,17,27,10.60
2007,10,03,17,28,10.60
2007,10,03,17,29,10.60
2007,10,03,17,30,10.60
2007,10,03,17,31,10.60
2007,10,03,17,32,10.60
2007,10,03,17,33,10.60
2007,10,03,17,34,10.60
2007,10,03,17,35,10.60
2007,10,03,17,36,10.40
2007,10,03,17,37,10.40
2007,10,03,17,38,10.40
2007,10,03,17,39,10.40
2007,10,03,17,40,10.40
2007,10,03,17,41,10.40
2007,10,03,17,42,10.40
2007,10,03,17,43,10.40
2007,10,03,17,44,10.30
2007,10,03,17,45,10.30
2007,10,03,17,46,10.30
2007,10,03,17,47,10.20
2007,10,03,17,48,10.10
2007,10,03,17,49,10.10
2007,10,03,17,50,10.10
2007,10,03,17,51,10.10